Theta_e
305 305 306 306 305 304 304 303 303 303 303 303 303 302 302 302 302 303 303 303 303 303 303 303 303 303 302 302 302 302 302 302 302 303 303 303 303 302 302 301 300 300 300 299 299 299 299 299 300 300 300 300 301 301 302 303 304 304 302 303 306 307 306 304 303 303 302 302 302 303 303 303 303 303 304 304 304 303 302 303 304 307 311 314 316
304 304 305 305 305 304 304 303 303 303 303 303 303 302 302 302 302 302 303 303 303 303 303 303 303 303 302 302 302 301 302 302 302 302 303 303 303 302 302 301 301 300 300 299 299 299 299 299 299 300 300 300 301 301 302 304 305 305 302 305 308 307 304 303 302 302 302 302 302 302 302 303 303 303 303 304 305 305 304 303 302 303 305 309 313
304 304 304 305 304 304 304 303 303 303 302 302 302 302 302 302 302 302 303 303 303 303 303 303 302 302 302 302 302 301 301 301 302 302 303 303 303 302 302 301 300 300 299 299 298 298 298 298 299 299 299 300 301 302 303 305 306 304 303 306 308 305 303 303 302 302 301 301 301 301 302 302 302 303 303 303 304 304 304 304 303 303 302 303 307
304 304 304 304 304 304 303 303 303 302 302 302 302 302 302 301 302 302 302 302 302 302 302 302 302 302 302 302 301 301 301 301 301 302 302 302 302 302 301 301 300 299 299 298 298 298 298 298 298 299 299 300 301 302 304 304 304 304 304 306 307 305 303 302 301 301 301 301 301 301 301 302 302 302 302 303 303 303 303 304 304 303 303 302 303
303 303 303 303 303 303 303 303 302 302 302 302 302 301 301 301 302 302 302 302 302 302 302 302 302 302 302 302 301 301 301 301 301 301 302 302 302 302 301 300 299 298 298 298 298 298 298 298 298 298 298 299 300 302 304 303 303 302 303 304 304 303 303 302 301 301 301 301 301 301 301 301 302 302 302 302 302 302 302 302 302 302 303 302 302
302 303 303 303 303 302 302 302 302 301 301 301 301 301 301 301 301 301 302 302 301 301 301 301 301 301 301 301 301 301 301 301 301 301 301 301 301 300 300 299 298 298 298 298 298 298 298 298 298 298 298 298 298 300 301 301 301 301 300 301 302 302 302 303 302 301 300 300 300 300 300 301 301 301 301 301 301 301 302 302 302 302 302 302 302
302 302 302 302 302 302 302 302 301 301 301 301 300 300 300 301 301 301 301 301 301 301 301 301 301 301 301 301 301 301 301 300 300 301 300 300 299 299 298 298 298 297 297 297 297 297 297 297 297 298 298 298 298 298 298 298 298 298 298 299 299 300 301 301 300 299 299 299 299 299 299 300 300 300 300 300 300 301 301 301 302 302 302 302 302
304 302 302 302 302 302 301 301 301 300 300 300 300 300 300 300 300 301 301 301 301 300 300 300 301 301 301 301 301 300 300 300 300 300 299 298 298 297 297 297 297 297 297 297 297 297 297 297 297 297 297 298 298 297 297 297 297 297 297 297 297 298 298 298 298 298 298 298 298 299 299 299 299 300 300 300 300 300 301 301 301 302 302 302 302
305 303 302 302 302 301 301 301 301 300 300 300 300 300 300 300 300 300 300 300 300 300 300 300 300 301 301 301 301 300 300 300 300 299 298 297 297 296 296 296 296 296 296 296 296 296 296 297 297 297 297 297 297 297 297 297 297 297 297 297 297 296 297 297 297 298 298 298 298 298 299 299 299 299 299 300 300 300 301 301 301 301 301 301 301
307 305 302 302 301 301 301 301 300 300 300 299 299 299 300 300 300 300 300 300 300 300 300 300 300 300 300 300 301 301 300 300 300 299 298 297 296 295 295 295 295 295 295 295 295 296 296 296 296 296 296 297 297 297 297 297 297 297 296 296 296 296 297 297 297 297 298 298 298 298 298 299 299 299 299 300 300 300 300 301 301 301 301 301 301
307 306 304 302 301 301 301 300 300 300 299 299 299 299 299 300 300 300 300 300 300 300 300 300 300 300 300 300 300 300 300 300 299 299 298 297 296 295 295 294 295 294 294 295 295 295 295 296 296 296 296 296 296 297 297 297 296 296 296 296 297 296 296 296 297 297 298 298 298 298 298 298 299 299 299 299 300 300 300 300 301 301 301 301 301
307 307 306 304 302 301 301 300 300 300 299 299 299 299 299 300 300 300 300 300 300 299 299 299 300 300 300 300 300 300 299 299 299 298 297 297 296 295 295 294 294 294 294 294 295 295 295 295 296 296 296 296 296 296 296 296 296 296 296 296 296 296 296 297 297 298 298 298 298 298 298 298 298 298 299 299 299 299 300 300 300 300 301 301 301
307 307 306 305 303 301 300 300 300 300 300 299 299 299 299 299 299 299 299 299 299 299 299 299 299 299 299 299 299 299 299 298 298 297 296 296 296 295 295 294 294 294 294 294 294 295 295 295 295 295 296 296 296 296 296 296 296 296 296 296 296 296 296 297 297 297 297 297 297 297 297 297 297 298 298 298 298 299 299 299 299 300 300 300 300
307 306 306 306 304 302 300 300 300 300 299 299 299 298 298 299 299 299 299 299 299 299 299 299 299 299 299 299 299 298 298 298 297 296 295 295 295 294 294 294 294 294 294 294 294 294 294 295 295 295 295 296 296 296 296 296 296 296 296 296 296 296 296 296 296 296 296 296 296 296 296 296 297 297 297 297 297 298 298 298 298 298 299 299 299
307 306 305 306 305 303 300 300 300 300 299 299 298 298 298 299 299 299 299 299 299 299 299 299 299 299 299 299 299 298 297 297 296 296 295 294 294 294 294 294 294 294 294 294 294 294 294 294 295 295 295 295 295 295 295 295 295 295 295 295 295 295 295 295 295 295 295 295 295 295 295 295 296 296 296 296 297 297 297 297 298 298 298 298 298
307 305 305 305 305 304 302 300 300 300 299 299 299 299 299 298 299 299 299 299 299 299 299 299 298 299 299 298 298 298 297 298 297 296 295 295 294 294 294 293 293 294 294 294 294 294 294 294 294 295 295 295 295 295 294 294 294 294 294 294 294 294 294 294 294 294 294 294 294 295 295 295 295 295 295 296 296 296 296 297 297 297 297 298 298
308 306 304 304 305 305 303 301 299 299 299 299 299 299 299 299 298 298 299 299 299 299 299 298 298 298 298 299 298 298 299 299 297 296 296 295 295 295 294 293 293 293 294 294 294 294 294 294 294 294 294 294 294 294 293 293 293 293 293 293 293 293 293 293 294 294 294 294 294 294 294 295 295 295 295 295 296 296 296 296 296 297 297 297 297
308 307 305 304 304 304 303 301 300 299 299 299 299 298 298 298 298 298 298 299 299 299 298 298 298 298 298 299 299 299 299 299 298 296 296 296 296 295 295 293 293 293 293 293 293 293 294 294 294 294 294 293 293 293 293 293 292 293 293 293 293 293 293 294 294 294 294 294 294 294 295 295 295 295 295 296 296 296 296 296 296 296 296 297 297
309 307 305 303 303 303 303 302 299 299 298 298 298 298 298 298 298 298 298 298 298 298 298 298 298 298 298 298 298 298 298 299 298 298 297 296 296 296 295 294 293 293 293 293 293 293 293 294 294 293 293 293 293 292 292 292 292 293 293 293 293 293 293 293 293 293 294 294 294 294 294 294 294 295 295 295 295 296 296 296 296 296 296 296 296
309 308 306 304 303 302 302 301 299 298 298 298 298 298 298 297 297 297 297 298 298 298 298 298 298 298 298 298 298 298 298 298 298 298 298 297 296 296 295 294 293 292 292 292 293 293 293 293 293 293 293 292 292 292 292 292 292 293 293 293 293 293 293 293 293 293 293 293 293 293 293 294 294 294 294 295 295 295 295 295 295 295 295 295 295
309 308 307 305 303 303 302 302 300 298 298 298 298 298 297 297 297 297 297 297 297 298 298 298 298 298 298 298 298 298 298 298 298 298 298 297 296 296 295 294 293 292 292 292 292 292 292 293 293 292 292 292 292 292 292 292 292 292 292 292 292 292 292 293 293 293 293 293 293 293 293 293 294 294 294 294 294 294 294 294 295 295 295 295 295
308 308 307 306 304 303 302 301 301 299 298 298 298 297 297 297 297 297 297 297 297 297 297 298 297 298 298 298 298 298 297 297 298 298 298 297 296 296 295 294 293 292 292 292 292 292 292 292 292 292 292 292 292 292 292 292 292 292 292 292 292 292 292 292 292 292 293 293 293 293 293 294 294 294 294 293 293 293 293 294 294 294 294 294 295
308 308 307 306 305 304 302 301 301 300 298 298 298 297 297 297 297 297 296 297 297 297 297 297 297 297 297 297 297 298 297 297 297 297 298 298 297 296 295 293 292 291 291 292 292 292 292 292 292 292 292 291 291 292 292 292 292 291 291 291 291 292 292 292 292 292 292 293 293 293 293 293 293 293 293 293 293 293 293 293 293 293 293 293 294
308 307 307 306 305 304 303 302 301 300 299 298 298 298 297 297 297 296 296 296 296 297 297 297 297 297 297 297 297 297 297 297 297 297 297 297 297 296 294 293 292 292 291 291 291 291 291 291 291 292 292 291 291 291 292 292 292 292 291 291 292 292 292 292 292 292 292 292 292 293 293 293 293 293 293 293 293 293 293 293 292 292 292 292 292
308 308 307 307 306 305 305 304 302 302 300 299 299 298 297 297 296 296 296 296 296 297 297 297 297 297 297 297 297 297 297 297 297 297 297 297 297 296 294 294 293 292 291 291 291 291 291 291 291 292 292 291 291 291 291 291 292 292 292 292 292 292 292 292 292 292 292 292 292 292 292 293 293 293 293 293 293 293 292 292 292 292 292 292 292
308 308 308 307 306 306 305 305 304 302 301 300 300 298 297 296 296 296 296 296 296 296 296 297 297 296 296 296 296 296 296 296 296 296 296 297 297 296 295 293 292 291 291 290 291 291 291 291 291 291 291 291 291 291 291 291 291 292 292 292 292 292 292 292 292 291 292 292 292 292 292 292 292 292 292 292 292 292 292 292 292 292 291 291 291
308 308 308 307 307 306 305 305 304 302 301 301 300 299 298 296 296 296 296 296 296 296 296 296 296 296 296 296 296 296 296 296 296 296 296 296 296 296 295 294 292 291 290 290 290 291 291 291 291 291 291 291 291 291 291 291 291 291 291 291 292 292 292 292 292 291 291 291 291 291 291 291 291 292 292 291 291 291 291 291 291 291 291 291 291
306 307 307 307 307 306 305 305 304 303 302 301 300 299 298 297 296 295 295 295 295 295 296 296 296 296 296 296 296 296 296 296 296 296 296 296 296 296 296 295 293 292 291 290 290 290 291 291 292 292 292 291 291 291 290 291 291 291 291 291 292 292 292 292 291 291 291 291 291 291 291 291 291 291 291 290 290 290 290 290 290 290 290 290 290
306 306 306 306 306 306 306 305 304 304 302 301 300 299 298 297 296 296 296 295 295 295 295 296 296 296 296 296 296 296 295 295 295 295 295 295 296 296 296 295 294 293 292 291 291 290 290 291 292 292 292 291 290 290 291 291 291 291 291 291 291 291 291 291 291 290 290 290 290 290 291 290 290 290 289 289 289 289 289 289 289 289 289 289 289
305 305 305 305 305 305 305 305 304 304 303 302 301 300 299 298 297 296 296 295 295 295 295 295 295 296 296 295 295 295 295 295 295 295 295 295 295 295 295 295 294 293 293 291 290 290 290 290 291 291 291 290 290 290 290 290 290 291 291 291 291 291 291 291 290 290 290 290 290 290 290 289 289 289 289 289 288 288 288 288 288 288 289 289 289
304 304 305 305 305 304 305 304 304 304 303 303 302 300 299 298 297 296 295 295 295 295 295 295 295 295 295 295 295 295 295 295 295 295 295 295 295 295 295 294 294 293 293 291 290 290 290 290 290 290 290 289 289 290 290 290 290 290 290 290 290 290 290 290 290 289 289 289 289 289 289 289 288 288 288 288 288 288 288 288 288 288 289 289 289
303 303 304 304 304 304 304 304 304 304 303 303 302 301 300 299 298 296 295 295 294 294 294 294 294 295 295 295 295 295 295 295 295 295 295 295 295 294 294 294 294 293 293 292 291 290 290 290 290 290 289 289 289 289 290 290 289 289 289 289 290 290 290 289 289 289 289 289 289 289 289 289 288 288 288 288 288 288 288 288 288 289 289 289 289
303 303 303 303 303 303 304 304 304 304 303 303 302 302 300 300 298 297 296 295 294 294 294 294 294 294 295 295 295 295 295 295 295 295 295 294 294 294 294 294 294 293 293 292 291 290 290 289 289 289 289 289 289 289 289 290 289 289 289 289 290 290 290 290 289 289 289 289 289 289 289 289 288 288 288 288 288 288 288 288 288 288 288 288 288
303 303 303 303 303 303 303 303 303 303 303 303 302 302 301 300 299 298 297 295 294 294 294 294 294 294 294 294 294 295 294 294 294 294 294 294 294 294 294 294 294 293 292 292 291 291 290 289 289 289 289 289 289 288 289 290 290 290 290 290 291 290 290 290 289 289 289 288 288 288 288 288 288 288 288 287 288 288 288 288 288 288 288 288 288
302 302 303 303 302 302 302 302 302 303 303 303 303 302 302 301 300 299 298 296 295 294 294 294 294 294 294 294 294 294 294 294 294 294 294 294 294 294 294 294 294 293 292 291 291 291 290 289 289 289 289 289 289 289 289 290 291 291 291 291 291 290 289 289 289 289 288 288 288 288 288 288 288 288 288 288 288 288 287 287 287 287 288 288 288
300 301 301 301 302 302 302 302 301 301 302 302 303 303 302 301 300 299 298 297 296 295 294 294 294 294 294 294 294 294 294 294 294 294 294 294 294 294 294 294 294 293 292 291 291 290 290 290 289 289 289 290 290 290 290 291 291 291 291 291 290 289 289 289 289 289 288 288 288 288 288 288 288 288 288 288 288 287 287 287 287 287 288 288 288
297 298 299 300 300 301 301 301 301 301 301 301 302 302 302 302 300 299 299 298 297 296 295 294 294 294 294 294 294 294 294 294 294 294 294 294 294 294 294 294 294 293 292 291 290 290 290 290 289 289 289 290 290 290 290 291 291 291 291 290 290 290 289 289 289 288 288 288 288 288 288 287 287 287 287 287 287 287 287 287 287 287 287 287 288
297 297 297 297 298 299 300 300 301 301 301 300 300 301 302 302 301 300 299 298 297 296 295 295 295 294 294 294 294 294 294 294 294 294 294 294 294 293 293 293 293 293 292 292 291 290 289 289 289 289 289 289 290 290 290 290 291 290 290 290 290 290 289 289 288 288 288 287 287 287 287 287 287 286 286 286 286 286 287 287 287 287 287 287 287
299 297 296 296 297 297 298 299 299 300 300 300 300 300 300 300 301 301 300 299 298 297 296 295 295 294 294 293 293 293 293 294 294 294 294 294 294 293 293 293 293 293 292 291 291 290 289 289 289 289 289 289 290 290 290 290 290 289 290 290 289 288 288 287 287 287 287 286 286 286 286 286 285 285 285 285 285 286 286 286 286 286 286 286 286
299 298 297 296 296 296 297 297 298 298 298 299 299 299 299 299 299 300 299 299 298 298 297 296 295 294 293 293 293 293 293 293 294 294 294 294 293 293 293 293 293 292 292 292 291 290 289 289 288 288 288 289 289 289 289 289 289 289 289 288 287 287 286 286 286 286 286 285 285 285 284 284 284 285 285 285 285 285 285 285 285 285 286 286 286
299 298 297 296 295 295 296 296 296 296 297 298 298 298 298 298 299 299 299 298 298 298 298 297 295 294 293 292 292 292 292 293 293 293 293 293 293 293 293 293 293 292 292 292 291 290 289 288 288 288 288 288 289 288 288 288 288 288 288 287 286 285 285 285 285 285 285 285 284 283 283 283 284 284 285 285 285 285 285 285 285 285 285 285 285
299 298 296 296 295 295 295 295 295 295 296 297 297 297 297 297 298 298 299 298 297 297 297 297 296 295 293 292 292 292 292 292 292 293 293 293 293 293 293 292 292 292 292 291 291 290 288 288 288 288 288 288 288 287 287 287 288 287 286 285 285 284 284 284 285 285 284 283 282 282 283 284 284 285 284 284 284 284 284 284 284 284 284 284 284
298 297 296 296 295 295 294 294 294 294 295 296 296 296 296 296 296 297 297 298 298 296 295 295 296 295 294 293 291 291 291 291 292 292 292 292 292 292 291 291 291 291 291 291 290 289 288 288 287 288 288 288 287 287 287 287 287 286 285 284 284 284 284 284 284 284 283 282 282 283 284 284 285 285 284 284 284 284 283 284 284 284 284 284 284
296 296 296 296 294 294 293 293 294 294 294 295 295 295 295 295 295 295 296 297 297 297 296 294 294 294 294 293 292 291 291 291 291 291 291 291 291 291 290 290 290 290 290 290 290 289 288 287 287 288 288 288 287 287 287 287 286 285 284 284 284 284 283 284 284 283 282 282 283 283 284 285 285 285 284 284 284 283 283 284 283 283 283 283 283
296 296 296 295 294 293 293 293 293 293 294 294 294 294 294 294 294 294 295 295 296 297 297 295 293 292 292 292 292 291 290 290 290 291 291 290 290 289 289 289 289 289 289 289 288 288 288 287 287 288 288 287 287 287 287 287 286 285 284 284 284 284 283 283 283 283 282 282 283 283 284 285 284 284 284 283 283 284 284 284 283 283 283 283 283
295 296 295 294 294 293 292 292 292 292 293 293 293 293 293 293 293 293 294 294 295 295 296 296 295 293 292 292 292 291 290 290 290 290 290 290 289 289 289 289 289 288 288 288 288 288 287 287 287 287 287 287 287 287 287 286 285 284 284 284 284 283 283 283 283 283 282 282 282 283 284 284 283 283 283 283 283 284 284 284 283 283 283 283 283
294 295 295 294 293 292 292 291 291 292 292 292 292 292 292 293 293 293 293 293 294 294 295 295 294 294 293 293 292 291 291 290 290 290 290 289 289 289 289 290 289 288 288 288 288 288 287 287 287 287 287 287 287 286 285 285 284 284 284 284 283 283 283 283 283 282 282 282 282 283 283 283 282 283 283 283 284 284 284 284 283 283 283 283 282
293 294 294 294 293 292 292 291 291 291 291 291 291 291 292 292 292 292 292 293 293 293 294 294 293 293 293 293 293 292 291 290 290 289 289 289 289 289 289 289 289 288 288 288 287 287 287 287 287 286 286 287 287 285 284 284 284 284 283 283 282 282 282 282 282 282 282 282 282 282 282 282 282 282 282 283 283 284 284 283 283 283 283 283 282
292 293 293 293 293 292 291 291 290 290 290 290 290 291 291 291 291 291 291 292 292 292 293 293 293 292 292 292 292 291 291 290 289 289 289 288 289 289 289 288 288 288 288 287 286 286 286 286 286 286 287 287 286 285 284 283 283 283 282 281 281 281 281 281 282 282 282 282 282 282 281 281 281 281 282 283 282 283 283 283 283 283 283 282 282
291 292 293 293 293 293 292 291 290 290 290 290 290 290 290 290 290 290 290 291 291 292 292 292 292 291 291 291 291 291 290 289 288 288 288 288 289 289 288 289 289 288 287 286 286 286 285 285 286 286 286 285 285 284 283 282 282 282 281 281 281 281 281 281 281 281 281 281 281 281 280 280 280 281 281 282 282 283 283 283 282 282 282 282 282
289 291 292 293 293 293 292 291 290 289 289 289 289 289 289 289 289 289 289 290 290 290 291 290 290 290 290 290 290 290 289 289 288 287 287 288 288 288 289 289 289 287 286 286 286 286 285 285 285 285 284 284 284 283 282 281 281 281 281 280 281 281 281 281 281 280 280 280 280 280 279 279 280 280 280 280 281 282 282 282 282 281 281 281 282
Wind_Speed
28 26 24 23 23 23 22 21 20 19 18 17 16 14 12 11 9 8 7 7 6 6 7 7 8 8 9 9 9 9 9 9 9 9 9 9 9 9 9 9 10 10 11 12 12 13 14 15 14 13 13 13 12 11 10 8 7 10 9 6 4 5 9 10 11 12 13 13 13 12 12 12 12 12 12 12 11 11 12 14 17 19 22 22 22
30 28 27 25 25 25 24 23 22 21 20 19 17 15 14 12 11 10 8 7 7 7 7 7 8 8 9 9 9 9 9 9 9 9 9 9 9 9 10 10 10 11 11 12 12 13 14 14 15 14 13 11 10 9 8 5 6 9 8 3 3 7 10 10 11 12 13 13 13 13 13 13 13 14 14 13 13 13 12 13 14 16 19 21 23
32 31 29 28 27 26 25 25 24 23 21 20 18 17 15 14 13 11 10 8 7 7 7 7 8 8 9 9 9 9 9 10 9 9 9 9 10 10 10 10 10 11 11 11 12 12 13 13 14 14 13 11 9 9 8 6 7 9 7 2 3 9 10 10 11 11 12 13 13 13 13 14 14 14 15 15 15 15 14 13 13 13 15 18 20
35 33 31 30 29 28 27 26 25 24 22 21 20 18 17 16 15 13 11 9 8 8 7 7 7 8 9 9 9 10 10 10 10 10 10 10 10 10 10 10 10 11 11 11 11 12 12 12 12 12 12 11 10 8 6 6 8 8 5 3 3 7 9 10 11 11 11 11 12 12 12 13 14 14 15 15 15 15 15 15 14 14 14 15 17
37 35 34 32 31 30 29 28 26 25 24 22 21 20 19 18 16 14 12 11 10 9 8 7 7 7 8 9 9 10 10 10 10 10 10 10 10 10 10 10 10 10 11 11 11 11 11 11 11 11 11 11 10 7 4 5 8 8 6 4 4 6 7 8 9 10 10 10 11 11 12 13 13 14 14 15 15 15 16 15 16 15 15 15 15
38 37 36 35 33 32 31 29 28 26 25 24 23 22 21 20 17 15 13 12 10 9 8 7 6 7 8 8 9 10 10 10 10 10 10 10 10 10 10 10 10 10 10 10 11 11 10 10 10 10 11 11 11 8 6 6 6 7 8 7 6 7 7 7 8 10 10 10 10 11 11 12 13 13 14 14 15 15 16 16 16 16 16 16 16
39 39 38 36 35 34 32 31 30 28 27 26 25 24 23 21 19 16 15 13 11 10 8 7 7 7 8 8 9 10 10 10 10 10 10 9 9 9 9 9 9 10 10 10 10 10 10 10 9 10 10 11 11 10 9 8 7 7 8 8 8 8 8 8 10 10 10 10 10 11 11 12 12 12 13 13 14 15 16 16 17 17 18 18 17
40 40 39 38 37 35 34 33 31 30 29 27 26 26 25 23 20 18 16 14 12 10 9 8 8 7 7 8 9 9 10 10 10 9 9 8 8 9 9 9 10 10 10 10 10 10 9 9 9 9 10 10 11 10 9 9 9 9 8 8 9 9 10 10 11 10 10 10 10 11 11 11 12 12 12 13 14 14 15 15 16 17 18 18 19
41 41 40 40 38 37 35 34 33 32 30 29 28 28 26 24 22 20 18 15 13 12 11 9 8 8 7 8 8 9 10 10 9 8 8 8 8 8 9 10 10 10 10 10 10 10 9 10 9 10 10 10 10 9 10 10 10 9 9 9 8 9 10 10 10 11 11 10 10 11 11 12 12 13 13 14 15 15 15 16 16 17 17 18 19
42 41 41 41 40 38 37 36 35 34 32 31 30 30 28 26 23 21 19 16 15 13 12 11 9 8 7 7 8 9 9 9 9 8 8 8 8 8 8 9 10 10 10 10 10 10 10 10 9 9 9 9 9 9 9 9 9 9 8 8 8 8 9 9 10 11 11 11 11 12 12 13 13 14 15 15 16 16 16 16 17 18 18 19 19
43 42 42 42 41 40 39 38 37 35 34 33 32 32 30 28 25 23 20 18 16 15 14 12 10 9 8 7 8 8 9 9 8 8 8 9 9 9 8 8 8 9 9 9 9 9 9 9 9 9 8 8 8 8 8 8 8 7 8 7 7 7 8 10 10 11 12 12 13 13 13 14 15 15 16 16 16 17 17 17 18 19 19 20 20
45 44 43 42 43 42 42 41 39 37 36 35 34 33 31 29 26 24 22 20 19 17 16 14 12 9 8 7 7 7 8 8 8 8 8 9 10 10 10 9 9 9 9 9 9 8 8 8 8 8 8 7 7 7 7 7 7 7 8 7 7 8 9 11 11 12 12 13 13 13 14 14 15 15 16 17 17 18 18 18 19 19 20 21 21
47 45 44 44 44 44 44 43 41 39 37 36 34 33 32 30 27 26 24 22 21 19 18 16 13 11 9 7 6 6 7 7 7 8 8 9 10 11 10 10 10 10 10 10 9 9 9 9 8 8 8 7 7 7 7 8 8 8 9 9 9 9 10 10 10 10 11 11 12 13 13 14 15 16 16 17 18 18 18 19 19 20 20 21 22
49 48 47 46 46 46 45 44 42 40 39 37 36 35 33 32 30 28 26 24 23 21 20 18 15 12 10 7 6 6 6 7 8 9 10 10 10 10 9 9 9 10 10 10 9 9 9 9 8 8 8 8 8 8 8 8 9 9 9 10 10 9 9 8 8 8 9 9 11 11 12 13 13 14 15 16 17 17 18 18 19 19 20 21 22
51 50 49 48 47 46 45 44 42 41 40 39 38 37 36 34 32 30 29 27 25 23 22 19 16 13 10 8 8 7 7 10 11 12 12 12 11 10 9 9 8 9 9 9 9 9 9 9 9 8 8 8 9 9 9 9 9 8 8 8 8 7 7 7 7 7 7 8 9 10 10 11 12 13 15 16 17 17 17 18 19 19 19 20 20
53 52 51 49 47 46 45 44 44 43 42 41 40 39 37 36 34 33 31 29 27 26 24 21 18 15 12 9 8 8 9 11 12 14 15 15 14 13 12 11 10 10 9 10 10 10 10 10 10 9 9 9 9 9 9 9 8 7 7 6 6 5 5 5 6 6 7 8 9 9 10 11 12 13 14 15 16 17 18 18 19 20 20 20 20
53 53 51 49 48 47 46 45 45 44 43 42 42 40 38 37 36 35 34 31 29 27 25 23 20 18 15 11 9 9 9 9 10 13 15 16 17 17 17 15 13 11 11 10 10 11 11 11 10 9 9 9 9 9 8 8 7 7 6 6 5 5 4 4 4 5 5 6 7 8 9 10 11 12 13 14 15 16 17 18 19 20 21 22 22
52 53 52 51 49 48 47 46 46 46 45 44 43 41 40 38 37 36 34 32 31 29 26 24 22 21 19 17 14 12 11 9 10 12 13 15 17 17 17 18 16 13 12 12 11 11 11 10 10 10 10 10 9 9 8 8 7 6 6 5 4 3 2 2 2 3 4 5 6 7 8 9 10 11 12 13 14 15 16 17 18 19 20 21 22
52 52 53 52 50 49 48 47 46 46 45 45 44 42 40 38 37 36 34 33 33 30 28 26 24 23 21 19 17 15 13 12 12 12 11 13 16 15 15 17 17 14 14 13 12 11 11 10 10 10 10 10 10 9 8 7 6 5 4 2 1 0 2 3 4 5 6 6 7 8 9 9 10 11 13 14 14 15 16 16 17 18 19 20 20
51 52 53 53 52 50 49 48 47 47 46 46 44 42 40 39 39 37 36 35 34 32 29 28 27 25 23 21 19 17 15 14 13 13 12 12 14 14 14 16 16 15 14 14 13 12 11 10 10 10 10 10 10 8 6 5 3 2 1 2 3 5 6 7 7 8 9 9 9 10 10 10 11 11 12 13 14 15 16 16 17 18 19 19 20
50 51 52 53 52 52 50 49 48 47 47 46 44 42 42 41 40 39 38 37 35 33 31 30 28 26 24 22 20 18 16 14 14 13 14 14 14 14 14 15 16 14 13 13 12 11 11 11 10 10 10 10 8 6 4 3 2 3 5 6 8 9 10 11 11 12 12 12 12 12 12 12 12 12 13 13 14 14 15 16 17 18 19 20 20
49 50 51 52 52 52 51 50 49 47 46 46 45 44 43 42 41 39 38 37 36 35 33 30 29 27 25 24 22 20 18 16 15 13 13 15 15 15 14 15 15 13 13 13 12 11 11 11 10 9 9 8 6 3 3 3 5 6 8 10 11 12 13 14 14 15 15 14 14 14 14 14 14 14 14 15 15 16 17 17 18 19 20 20 21
47 49 51 51 52 52 51 50 48 47 47 47 46 45 43 42 41 40 40 39 37 36 34 32 30 28 27 26 24 22 19 17 15 13 13 14 14 14 14 14 13 12 12 13 12 12 12 11 10 9 8 7 4 2 3 4 6 8 10 11 13 14 15 16 16 16 17 16 16 17 17 17 17 17 18 18 19 19 20 21 21 22 22 22 23
46 49 50 51 51 51 51 50 50 49 47 47 45 44 44 43 43 42 41 40 39 38 36 35 33 31 30 28 25 23 21 19 16 14 13 13 13 14 14 14 13 11 11 12 12 12 13 12 11 9 7 6 2 2 4 5 7 9 10 12 13 15 16 17 17 18 18 18 19 19 20 20 21 21 22 22 23 23 23 23 24 24 24 25 24
45 47 48 49 49 49 50 50 50 50 48 47 46 45 45 45 44 44 43 42 41 40 38 37 35 33 31 29 27 24 22 20 17 15 14 13 14 14 14 14 13 12 11 12 12 12 13 14 12 9 7 5 1 2 3 5 7 8 10 12 14 15 17 18 19 19 20 20 20 21 21 22 23 23 24 24 25 25 25 25 26 26 26 26 26
41 42 43 45 45 46 47 48 49 50 50 49 48 47 46 46 45 45 44 43 42 41 40 38 36 34 32 30 27 26 24 21 19 17 15 14 13 14 14 14 13 12 11 12 13 13 14 15 13 10 8 4 1 1 3 5 7 9 11 13 15 16 18 19 19 20 20 20 21 21 22 23 23 24 24 25 25 26 26 26 27 26 26 26 26
36 38 40 41 42 43 45 47 48 50 51 50 49 48 47 47 47 46 45 44 44 43 41 40 38 36 34 32 30 28 25 23 20 18 16 14 14 14 15 14 13 12 12 12 14 14 15 15 13 10 7 4 3 3 5 6 8 10 11 13 15 17 18 19 19 20 20 20 21 22 23 23 24 25 25 25 26 26 26 27 27 27 27 27 26
35 36 39 41 41 42 43 44 46 49 50 51 50 49 48 48 48 47 47 46 45 45 43 42 40 38 36 34 32 30 27 24 22 19 17 16 15 15 15 15 14 13 13 13 14 16 17 16 13 11 9 6 4 4 5 7 9 11 12 14 16 17 19 20 20 21 21 21 22 23 24 24 25 25 25 25 25 25 26 26 27 27 27 28 27
35 36 38 40 41 41 42 42 44 46 49 50 50 49 48 48 48 48 48 48 47 46 45 44 43 41 39 37 35 32 29 26 24 22 20 18 17 16 16 16 16 15 14 14 14 15 15 15 14 13 11 9 6 5 5 7 9 10 12 14 15 17 19 20 21 21 22 22 22 23 23 24 24 24 24 24 24 24 25 25 26 27 27 28 28
36 36 37 39 40 41 42 42 42 43 46 48 49 50 49 49 49 49 49 49 49 48 47 46 45 43 41 39 37 35 32 29 26 24 22 20 18 17 17 17 16 16 16 15 14 14 14 15 15 13 11 9 7 6 5 7 9 11 12 14 16 18 19 20 21 22 22 23 23 23 23 23 23 23 23 23 23 23 24 24 25 26 27 28 28
39 38 38 39 39 40 41 41 41 41 43 46 48 50 50 50 50 50 51 51 51 50 50 48 47 45 44 42 41 38 35 32 29 27 24 22 20 19 18 18 17 16 16 15 16 16 15 15 14 12 11 10 8 7 7 8 10 12 13 15 17 18 20 20 21 22 23 23 22 22 22 21 21 21 20 21 21 22 22 23 24 25 26 27 27
40 41 41 41 40 40 40 40 41 41 42 44 47 50 51 51 51 52 52 52 53 52 51 50 48 47 46 45 43 41 38 35 32 30 27 24 22 21 19 18 18 17 17 16 16 17 16 15 14 13 12 11 10 9 9 10 11 12 14 15 17 19 20 20 21 22 22 22 22 21 21 20 19 19 19 19 20 21 22 23 24 25 25 26 26
40 41 43 43 43 42 41 41 41 41 41 43 45 48 51 52 53 53 54 54 54 54 53 52 51 49 49 48 46 43 40 38 35 32 29 27 25 23 21 20 19 19 18 17 17 18 18 17 16 14 13 12 11 10 10 11 12 13 14 16 18 20 21 20 21 22 22 22 21 21 20 19 19 19 18 19 19 20 21 22 23 24 25 25 26
40 41 42 43 44 44 44 44 43 43 42 43 44 46 50 52 54 55 56 56 56 56 55 55 53 52 51 50 48 45 42 39 37 34 31 29 27 25 23 21 20 19 19 18 17 18 19 18 16 15 14 13 13 12 12 12 13 15 16 18 20 22 22 21 20 21 21 20 20 20 19 19 18 18 18 19 19 20 21 22 23 24 24 25 26
43 43 43 44 44 45 46 47 47 46 45 44 44 46 48 51 54 56 57 58 58 58 58 57 56 55 54 53 51 48 45 42 39 36 34 32 30 27 25 22 21 20 20 19 18 19 19 19 18 17 16 15 15 16 16 15 16 18 19 20 22 22 22 21 20 20 20 20 20 20 19 18 18 18 18 19 19 19 20 21 22 24 25 26 27
43 44 45 46 46 47 47 48 49 49 48 46 45 46 48 51 54 56 58 58 59 59 58 57 57 57 56 55 53 51 48 45 42 39 37 35 32 29 27 24 23 22 21 20 20 19 20 21 20 19 18 18 18 19 19 18 19 20 20 20 21 22 22 22 22 22 21 21 21 20 19 18 18 18 19 19 19 19 20 21 23 24 25 26 27
40 42 44 46 47 49 49 49 49 50 50 50 49 48 49 50 53 55 58 59 59 59 59 58 58 58 58 57 55 53 51 48 45 43 40 38 34 31 29 26 24 23 22 21 21 21 21 22 22 21 20 20 19 20 20 20 20 21 22 21 22 22 22 22 22 22 21 21 21 20 19 18 18 19 20 20 20 20 21 22 24 25 26 27 28
37 40 43 45 47 49 50 50 50 51 51 51 52 51 50 51 52 55 57 59 59 59 59 59 59 59 59 58 57 55 54 51 48 45 43 40 37 34 30 27 26 24 23 23 22 22 22 22 23 22 21 21 20 20 21 21 21 22 23 22 22 23 22 21 20 20 20 20 20 19 18 19 20 21 22 22 22 22 22 23 25 26 27 28 29
35 38 42 44 46 48 49 50 51 52 52 52 53 53 53 53 54 55 57 58 59 60 60 60 60 60 60 60 59 57 56 53 50 48 45 42 39 35 31 29 28 26 25 24 24 24 24 24 24 23 22 21 20 19 21 22 22 22 24 23 22 21 21 19 17 18 19 20 20 20 20 21 22 22 23 24 24 24 24 24 25 26 28 29 30
34 36 39 42 45 47 48 49 51 52 54 54 55 55 55 55 56 57 58 59 59 59 60 61 61 62 62 62 61 59 57 54 51 49 46 43 40 36 34 31 30 28 27 27 26 26 26 25 24 23 22 22 20 19 20 21 21 22 23 22 20 18 19 17 15 16 18 19 20 21 21 22 23 23 24 25 26 27 27 26 26 27 29 30 32
33 34 37 40 43 46 48 49 50 52 55 56 57 57 57 57 57 57 58 60 60 60 60 61 62 63 64 63 62 60 57 54 52 49 46 43 41 39 36 35 33 31 29 29 28 28 28 27 26 24 23 22 21 19 19 21 22 22 21 20 18 17 17 15 13 14 17 19 21 22 20 22 24 25 26 27 28 29 30 29 29 29 29 30 31
33 33 34 37 41 44 47 49 50 53 55 57 58 58 58 58 57 56 57 59 61 62 62 63 64 65 65 64 63 61 58 55 53 50 46 44 42 39 37 35 34 33 31 30 29 29 29 28 26 24 24 22 20 20 20 21 21 20 19 17 15 15 15 15 14 14 17 20 22 22 21 22 25 27 27 28 29 30 31 31 30 30 30 30 30
33 33 33 35 39 42 45 48 50 53 55 57 57 57 58 58 58 58 57 57 60 63 64 65 65 65 65 65 65 63 60 57 55 52 48 45 43 40 38 35 34 33 32 31 30 30 30 28 26 25 25 23 21 20 21 21 20 19 17 15 14 14 15 15 15 14 16 19 22 24 24 23 25 28 27 27 29 30 30 30 31 31 31 30 30
32 32 33 35 36 39 43 46 49 52 55 56 56 57 58 58 58 58 58 58 59 61 64 66 66 65 65 66 65 64 62 60 57 53 50 47 44 42 40 38 36 35 34 32 31 30 29 28 27 27 25 23 22 22 21 21 20 18 16 15 14 15 15 14 15 14 15 19 23 26 27 25 26 29 27 27 28 30 30 31 32 33 33 32 31
34 32 33 33 34 37 41 45 48 51 53 55 56 56 57 57 57 58 58 59 59 60 62 65 66 67 66 66 66 65 64 61 58 55 52 49 46 43 41 39 38 37 35 33 32 31 30 29 28 27 25 24 23 23 21 20 19 18 16 15 15 15 14 14 15 16 16 19 24 27 29 27 27 29 28 27 29 31 32 33 33 34 34 33 33
35 34 33 32 33 34 38 43 47 50 52 54 55 56 56 56 56 56 57 58 59 60 60 63 65 66 66 66 66 65 64 62 60 58 54 51 48 46 44 42 41 38 36 34 33 33 32 31 29 27 25 25 24 22 21 20 19 18 18 16 15 15 15 14 15 17 18 19 23 27 30 28 27 29 30 29 31 33 34 34 33 33 33 33 34
34 34 34 33 33 33 35 39 44 48 51 53 53 55 55 55 55 55 55 56 59 60 60 62 63 64 64 64 63 63 63 62 61 59 56 53 51 48 46 44 42 39 37 36 35 35 33 32 29 27 26 26 24 22 20 20 19 19 18 16 15 15 15 15 15 16 17 18 22 27 30 29 28 31 32 31 33 35 34 34 34 32 32 33 35
35 34 33 32 32 32 32 35 41 46 49 51 52 53 54 54 53 53 54 55 58 60 61 62 63 62 61 61 61 60 60 60 60 59 56 53 51 49 47 44 41 39 38 37 37 35 33 31 28 27 26 25 23 22 21 19 19 19 16 14 14 15 15 15 15 15 15 17 20 24 28 29 29 33 35 34 35 36 35 34 33 31 31 32 35
37 35 33 32 31 31 31 33 38 42 46 48 50 51 52 53 53 52 53 55 57 60 61 62 63 62 61 59 59 59 59 59 59 57 56 53 51 50 47 44 41 40 40 39 37 35 32 30 29 28 26 24 23 22 21 19 18 17 14 13 14 15 16 16 17 17 16 16 18 22 26 28 29 32 36 37 37 37 36 34 34 33 33 33 34
40 37 35 34 32 31 31 32 34 38 42 44 47 50 51 51 52 52 52 54 57 60 61 62 62 62 60 58 57 56 56 56 56 56 56 55 53 52 48 44 43 44 42 39 37 34 33 32 30 28 25 24 24 23 20 18 17 16 14 14 15 16 16 16 18 18 17 16 17 20 24 27 28 31 36 40 41 40 38 37 39 40 38 37 36
42 40 38 36 34 32 31 32 33 35 38 41 44 47 49 49 50 50 51 53 57 59 60 61 62 60 59 57 55 54 53 52 52 54 55 55 54 52 47 45 46 45 41 37 36 36 35 34 31 28 27 26 25 22 19 17 17 16 16 16 16 15 16 16 17 18 17 15 17 20 23 26 26 28 32 38 43 45 42 41 42 43 42 40 40
Wind_Direction
225 223 221 218 216 217 218 218 218 219 220 220 221 223 226 231 239 248 258 273 289 305 317 327 332 334 333 331 329 327 327 328 328 327 324 319 314 307 300 292 285 278 273 269 264 261 257 254 252 251 250 252 254 255 259 262 266 262 258 266 279 270 261 260 264 268 269 271 274 277 280 282 282 281 280 282 282 278 273 269 262 255 251 249 251
226 224 223 220 219 219 219 219 219 219 219 220 221 223 226 230 236 243 252 265 280 296 308 318 325 328 327 325 323 321 321 321 322 321 319 315 310 303 297 291 284 280 276 271 265 259 255 251 249 248 244 243 245 245 247 247 256 256 248 249 254 249 255 260 261 266 269 272 275 277 280 281 280 280 280 282 282 280 278 276 272 266 261 255 253
226 225 224 222 221 221 221 220 220 220 219 220 222 223 226 229 234 240 249 259 270 284 295 307 315 319 321 320 318 316 316 317 318 317 316 312 308 302 295 290 284 278 274 267 262 257 252 249 247 246 239 231 230 231 235 236 246 251 243 228 255 252 254 258 258 261 265 268 272 274 277 277 279 283 285 287 287 287 287 285 282 278 271 264 258
227 225 224 223 222 222 223 222 222 222 221 222 222 224 226 229 233 238 244 251 261 272 283 296 306 312 314 315 314 313 314 314 315 315 314 311 307 302 295 289 282 274 268 262 257 255 252 250 248 245 237 225 220 224 230 238 243 243 234 223 250 255 256 259 259 259 263 267 272 275 278 281 285 289 291 293 292 292 292 292 291 289 285 279 271
228 226 225 224 223 223 224 223 223 223 223 223 223 224 226 229 232 235 240 245 254 262 272 285 296 305 308 311 311 311 312 313 314 314 313 310 306 301 294 286 278 269 263 259 256 256 254 253 250 246 239 226 218 216 219 234 240 238 240 247 250 255 263 269 266 267 273 278 281 283 286 290 294 297 298 298 297 296 295 295 296 296 295 292 286
229 227 226 224 224 223 224 224 224 224 224 224 223 224 226 228 230 232 235 240 246 252 262 275 287 296 304 309 311 310 311 312 313 314 312 308 303 296 289 280 271 263 259 257 257 258 256 254 251 247 244 237 232 232 239 244 250 250 254 262 260 260 269 279 277 280 289 292 293 295 296 298 301 302 304 303 301 300 300 300 300 298 297 296 295
229 228 226 225 225 224 224 224 225 225 224 224 223 224 226 228 229 230 233 235 239 245 252 262 275 288 300 307 310 310 310 312 312 311 308 302 295 287 279 272 265 259 257 256 257 258 257 256 253 250 248 248 248 248 252 253 258 261 261 264 264 267 271 276 279 284 291 293 295 295 294 296 298 299 300 300 300 301 302 303 302 300 299 297 296
230 229 227 226 226 225 225 225 225 225 224 224 223 224 226 227 229 229 230 231 232 238 243 252 267 282 297 305 309 310 310 310 310 307 302 292 282 273 266 263 260 258 258 257 258 257 257 256 252 251 250 251 254 254 255 253 255 256 258 261 263 267 269 270 275 279 282 284 285 285 286 288 290 293 294 295 296 298 299 300 301 300 300 299 297
231 230 229 228 227 226 226 226 226 225 224 224 223 225 226 227 229 228 227 226 227 233 238 247 263 278 293 303 308 310 310 308 307 302 291 277 266 260 257 256 256 257 258 258 259 258 257 255 252 250 250 251 255 256 255 254 255 254 253 256 257 260 265 266 270 273 275 276 276 276 278 281 282 284 285 286 289 291 294 296 297 298 298 298 297
231 230 229 228 227 226 226 227 226 226 224 224 224 225 226 227 227 226 225 224 224 230 237 246 259 271 285 297 305 308 308 306 303 296 280 263 253 251 251 251 252 253 254 255 256 257 257 255 252 250 249 249 251 253 255 254 254 253 249 250 249 252 261 264 265 268 269 268 268 267 267 268 269 270 272 274 277 280 283 286 290 292 294 295 296
231 231 230 229 227 226 226 226 227 226 225 224 224 225 226 226 226 225 224 223 225 229 236 243 250 260 271 285 296 302 303 302 296 285 271 257 248 245 247 249 251 249 248 248 248 251 252 253 251 250 249 249 249 249 250 251 250 249 245 246 247 247 255 259 259 261 262 262 262 262 262 264 265 267 268 270 271 273 275 277 280 283 286 289 292
232 231 230 229 228 227 226 226 226 226 225 225 225 226 227 227 227 225 224 223 225 227 233 239 242 246 255 271 285 294 295 292 286 277 264 253 245 242 243 246 249 248 246 243 242 241 241 244 245 245 245 244 245 244 243 243 241 239 237 238 241 243 249 257 259 260 261 263 265 266 268 269 270 270 270 270 271 272 273 273 274 276 279 282 285
232 231 230 229 228 227 227 226 226 226 226 227 227 227 227 226 226 225 224 223 225 227 231 234 235 236 241 252 266 277 280 275 269 264 255 248 242 238 239 241 245 248 247 245 243 239 236 235 236 236 237 236 235 235 234 233 231 231 231 232 237 243 251 260 264 264 266 269 271 273 274 275 275 275 275 276 276 275 275 275 274 273 274 275 277
232 231 230 229 228 227 227 226 226 227 226 226 226 225 225 225 224 224 223 223 223 227 230 231 230 231 235 239 244 251 256 256 250 244 238 234 232 231 230 232 238 243 246 246 243 241 239 236 234 233 233 231 228 227 225 223 223 224 225 230 237 244 251 258 262 266 270 274 276 278 281 281 282 282 281 280 280 279 278 277 275 273 273 273 273
231 231 230 229 228 228 228 227 227 228 227 226 225 224 223 224 224 224 224 223 222 225 229 231 229 225 225 230 234 228 234 244 240 232 226 222 222 222 221 225 232 237 241 243 242 240 239 238 236 233 230 226 221 220 217 215 213 214 217 223 231 238 245 253 260 266 271 275 278 282 284 285 285 284 284 284 284 284 283 281 279 277 275 274 273
230 231 230 229 229 228 229 228 228 228 228 228 227 226 225 224 224 224 224 223 223 225 227 228 228 226 222 220 222 221 238 247 236 227 223 221 224 224 226 230 231 232 233 235 237 235 235 236 235 233 227 219 214 211 208 204 201 200 206 213 221 231 242 253 263 269 274 278 281 284 284 284 285 285 286 287 288 289 289 289 287 285 283 280 277
230 231 231 230 230 229 229 228 228 229 228 228 229 229 227 226 224 224 225 225 226 227 227 227 228 231 230 225 221 227 247 250 228 222 224 227 233 236 238 236 231 235 239 239 239 237 236 235 233 230 220 211 206 200 193 188 187 189 196 205 212 222 234 249 265 275 283 289 291 292 291 291 291 291 291 291 293 293 293 292 292 291 290 288 285
230 230 231 230 230 230 229 228 228 228 228 229 228 228 227 226 225 225 225 226 227 228 228 229 231 234 237 240 242 247 252 243 223 223 229 233 237 242 241 230 227 242 251 252 251 245 242 238 231 221 209 200 191 181 175 172 175 182 188 192 197 204 223 265 300 311 314 315 313 311 309 307 304 302 299 298 297 295 293 292 291 289 288 287 287
230 230 230 230 230 230 230 229 229 229 229 229 228 227 226 226 226 226 226 226 226 227 229 231 233 235 238 243 247 249 250 245 237 236 238 235 233 239 237 224 226 242 251 254 254 247 244 238 226 212 198 189 178 168 165 166 172 178 178 172 163 76 18 6 360 354 349 344 338 333 328 323 318 313 309 306 303 299 296 294 292 291 289 288 287
230 230 230 230 230 229 230 230 230 230 229 229 229 228 226 225 224 224 224 225 226 227 229 232 235 237 238 240 242 244 245 249 250 247 244 240 237 237 232 222 227 236 242 248 248 243 240 231 216 203 191 181 172 164 159 158 157 150 98 37 24 17 12 8 7 5 3 1 356 352 347 339 332 325 320 315 311 308 305 303 301 300 298 296 295
230 231 231 231 231 230 230 230 230 230 230 230 229 228 226 225 224 224 224 224 226 226 228 233 237 240 241 241 241 241 241 245 249 249 247 245 243 239 230 223 224 229 236 240 238 236 232 222 208 195 186 178 168 157 138 111 61 36 24 19 15 11 9 8 7 7 7 6 4 0 356 349 342 335 329 324 319 315 311 309 307 305 303 301 300
231 231 231 231 231 231 230 230 231 231 231 230 229 227 226 225 225 225 225 225 226 226 228 232 235 239 242 242 241 241 241 243 248 253 252 248 245 241 236 227 223 227 234 235 234 231 222 211 201 190 183 177 165 135 99 61 33 23 18 16 12 8 6 6 5 5 5 5 3 359 355 350 346 342 338 333 329 325 322 319 315 312 309 307 304
233 232 232 232 231 231 231 231 231 232 231 230 229 228 227 226 225 225 225 225 226 227 228 230 232 235 239 241 244 246 247 250 255 258 259 256 249 243 238 229 226 229 229 230 230 226 218 207 198 191 183 179 163 99 67 38 24 18 15 13 9 5 4 3 1 1 0 359 358 355 352 349 346 344 341 338 334 332 330 328 325 322 320 317 314
234 234 233 233 232 231 231 230 230 231 231 230 230 229 228 226 226 225 224 224 225 227 228 230 232 234 237 240 243 245 247 250 255 259 263 262 254 245 239 233 233 231 226 229 229 223 218 209 203 200 191 184 164 66 43 26 15 10 8 6 4 1 359 358 357 356 355 355 354 352 350 347 345 344 342 339 337 336 335 333 330 329 327 324 322
235 234 234 234 234 233 232 230 229 229 230 230 230 229 228 226 226 225 225 225 226 227 228 230 233 236 239 241 241 241 243 246 250 254 258 260 255 248 243 241 242 236 228 233 235 228 218 210 210 212 204 197 177 41 26 16 6 359 357 357 357 356 354 353 353 353 352 351 350 349 347 346 344 343 341 339 338 336 335 334 332 332 330 328 326
237 237 236 236 236 236 235 233 230 229 229 229 229 228 227 226 226 226 226 226 227 228 229 230 232 234 236 238 239 239 240 242 245 248 252 257 258 253 247 245 246 243 235 234 236 235 227 220 220 217 210 213 249 356 3 1 354 351 352 352 351 351 349 349 348 347 346 346 346 345 344 343 342 340 339 338 336 335 334 332 331 331 330 329 327
243 241 239 239 239 238 237 235 232 230 229 229 229 228 227 226 225 225 226 226 227 227 228 229 230 232 234 235 236 236 237 238 239 243 245 250 253 253 251 247 245 246 244 237 233 234 236 234 231 227 227 245 281 324 343 348 346 345 346 347 345 343 343 342 341 341 342 343 343 342 342 341 340 339 337 336 334 333 332 331 330 330 329 329 327
249 245 242 240 240 240 239 237 235 233 231 231 230 229 228 226 225 225 225 226 226 227 227 228 230 231 232 233 235 235 235 234 234 236 238 242 246 249 250 249 246 246 245 243 237 232 231 230 231 235 242 258 284 308 325 333 335 336 337 338 338 338 338 337 337 338 340 341 341 340 339 338 337 336 335 334 333 332 332 331 331 330 330 329 327
255 250 247 244 243 242 241 240 238 236 234 233 232 231 230 228 228 227 226 226 226 227 228 228 229 230 230 232 233 234 234 232 232 233 234 238 242 245 248 248 247 246 244 245 241 232 225 221 226 234 238 244 260 277 297 312 319 325 328 331 333 334 333 333 335 337 338 338 337 336 335 334 334 334 334 334 333 332 332 331 330 330 329 328 326
259 255 252 249 246 245 243 242 240 239 237 235 234 233 231 230 229 229 228 228 227 227 227 228 228 229 229 231 232 233 233 233 232 232 233 235 238 242 246 245 246 248 248 245 238 231 226 222 226 233 237 240 247 256 274 294 307 316 322 326 329 330 329 331 333 335 335 335 335 335 334 333 333 332 332 331 330 331 331 330 329 328 326 325 324
262 259 256 253 250 247 245 244 243 242 240 237 235 234 232 231 230 229 228 228 227 227 227 227 227 228 229 230 231 232 232 232 232 232 232 233 234 238 241 244 245 247 249 246 238 234 232 228 231 239 246 252 256 262 278 295 306 314 320 323 326 328 329 331 333 333 334 334 334 333 330 329 327 326 325 325 326 327 326 325 325 324 322 321 320
264 262 259 257 254 251 248 246 245 243 242 239 236 234 233 232 231 230 229 228 227 227 227 227 227 228 229 230 231 231 231 231 231 231 231 231 231 233 237 241 243 245 247 248 245 241 237 235 242 251 256 262 269 277 288 300 308 313 319 323 325 325 326 330 331 330 330 329 327 324 321 319 318 318 319 321 322 322 322 322 321 321 320 318 317
265 263 261 260 258 256 253 251 248 246 244 241 239 236 234 232 231 230 230 229 228 227 227 227 228 228 229 230 230 230 231 231 231 231 230 229 228 230 234 237 241 243 245 247 248 246 243 243 249 256 261 268 275 279 286 296 303 309 315 318 318 317 319 323 324 323 323 321 320 318 316 315 315 316 318 320 320 321 321 320 319 318 318 317 316
268 265 262 261 260 259 257 255 253 250 247 245 242 239 237 234 232 230 230 229 228 227 227 227 228 228 229 230 230 229 229 230 230 231 230 229 229 230 233 237 240 242 243 244 246 246 247 247 249 254 261 268 272 273 277 284 289 296 302 306 308 310 313 318 320 319 320 320 319 318 317 316 316 318 319 319 320 321 321 320 319 319 318 317 316
271 268 265 262 260 259 258 257 255 252 250 248 246 243 240 238 235 232 231 230 228 228 227 227 228 228 228 229 229 228 228 228 229 229 229 229 230 231 233 235 238 240 242 242 244 245 245 245 245 248 254 261 265 268 273 279 283 288 294 300 304 307 312 317 319 320 320 319 317 314 313 312 312 312 314 315 319 322 323 323 322 320 319 317 315
269 268 267 265 262 259 257 256 255 253 251 249 248 246 244 241 238 236 233 231 230 229 229 229 229 229 229 229 229 228 227 228 228 229 230 230 230 230 232 233 236 239 240 242 242 242 242 244 245 246 249 255 260 265 272 279 284 289 293 298 302 306 311 315 316 316 315 313 310 309 309 309 311 313 314 317 323 327 327 325 323 321 319 317 316
273 269 266 264 263 262 259 258 257 256 254 251 248 247 246 244 242 239 236 234 232 231 230 230 230 231 231 231 230 228 227 227 228 229 231 232 232 231 231 233 235 236 238 241 242 241 241 244 247 248 249 254 258 265 272 278 284 289 293 296 299 301 304 308 309 310 309 307 306 307 310 314 319 322 323 326 330 332 329 326 325 323 322 320 318
282 277 271 266 264 264 264 263 261 259 256 253 251 248 247 245 243 241 238 236 234 233 231 231 231 232 232 232 231 229 228 228 229 231 232 233 233 232 232 234 236 237 239 241 242 242 242 242 245 248 251 254 257 264 271 277 282 286 290 293 296 298 300 302 305 307 308 308 308 312 319 324 328 332 332 334 335 333 330 329 328 327 325 324 321
285 283 279 274 271 268 267 265 263 261 258 255 253 251 248 246 244 242 239 237 235 233 233 232 232 232 232 232 231 230 229 229 231 232 232 232 232 232 233 235 236 236 238 240 241 242 242 241 242 245 249 253 256 261 269 276 280 283 286 289 293 296 299 304 310 312 313 313 316 324 333 334 335 336 335 336 336 334 333 333 333 331 329 326 324
283 285 284 281 278 274 271 267 263 261 258 256 254 252 248 245 244 243 241 238 235 233 233 233 233 233 233 232 231 231 230 231 232 233 233 233 232 231 231 233 234 234 236 238 240 240 240 239 239 241 244 249 253 258 266 272 276 280 285 290 294 296 298 304 317 321 318 318 322 331 339 338 335 335 335 337 337 335 335 337 336 334 331 328 327
280 282 284 284 281 277 273 270 265 260 258 257 256 253 250 247 244 243 242 241 238 235 233 232 232 232 232 232 232 231 230 231 232 232 232 232 232 231 231 231 231 232 234 236 237 238 238 236 235 237 240 245 250 255 260 266 272 277 283 289 294 298 300 308 324 326 321 322 327 331 337 336 332 333 337 339 337 335 336 338 337 335 333 330 328
282 280 281 281 280 278 274 271 267 262 259 258 257 255 253 250 247 244 242 242 240 237 235 233 232 231 231 231 232 231 230 229 230 230 229 229 230 230 232 233 232 232 233 234 236 237 237 236 235 237 239 243 248 252 257 264 270 275 279 284 290 296 302 312 327 330 325 326 326 326 332 336 332 332 337 339 337 335 335 335 335 333 331 330 329
294 285 282 278 277 278 276 272 268 265 262 261 259 257 255 252 249 245 243 242 241 239 237 234 233 232 231 230 230 230 229 228 228 227 226 226 226 225 226 228 229 231 233 234 235 235 235 236 235 236 240 243 245 248 255 262 268 272 275 279 286 291 298 312 326 332 327 324 323 322 328 335 331 328 334 337 334 331 331 331 331 330 329 331 331
312 294 284 280 280 279 276 272 269 266 265 263 261 258 256 253 250 247 244 242 241 241 239 236 234 233 232 230 229 229 228 227 226 225 223 223 223 222 223 224 225 228 230 232 234 234 234 235 235 237 240 243 244 248 255 262 265 267 269 274 282 288 298 313 325 330 327 323 323 322 325 331 329 325 330 334 330 327 328 330 331 331 331 334 334
327 311 294 285 283 281 276 273 270 268 266 264 261 259 257 254 251 247 245 244 242 242 242 240 236 234 232 230 229 228 227 226 225 224 223 221 220 219 220 222 224 226 228 229 231 232 233 234 236 239 241 242 244 250 257 260 260 261 264 270 278 286 300 314 321 326 329 327 325 322 321 327 329 325 328 331 328 326 328 330 331 331 332 334 334
330 325 311 295 285 282 279 275 272 270 267 265 262 259 257 254 252 249 246 245 244 243 243 243 241 238 235 232 230 229 227 225 224 223 222 220 220 219 219 221 223 224 225 227 229 230 230 231 233 237 240 243 247 252 255 256 257 258 261 268 276 286 299 311 317 323 328 327 324 319 318 325 328 323 324 329 327 325 327 328 329 330 332 334 333
326 327 322 308 293 285 281 277 273 270 268 265 261 259 257 255 252 250 247 245 245 244 244 244 243 242 239 237 234 232 230 227 225 223 222 221 220 220 221 222 223 223 224 227 229 229 229 229 232 234 238 243 248 250 251 251 252 256 260 268 279 288 298 307 314 318 322 322 320 317 318 324 327 322 323 328 325 322 324 326 327 329 332 333 331
320 322 323 318 305 292 284 280 275 272 269 265 262 259 257 255 252 249 247 245 245 244 243 243 242 241 240 239 237 235 233 231 228 224 222 222 222 222 223 223 223 224 225 227 228 228 228 229 230 231 235 243 248 248 246 245 247 254 262 272 282 289 295 301 306 310 313 318 320 317 317 321 325 323 323 325 322 319 322 324 324 327 330 331 329
316 318 319 318 311 299 289 281 277 275 271 267 263 260 257 254 251 248 246 245 244 243 242 242 241 241 239 238 237 235 233 231 228 225 223 222 223 224 223 222 223 224 225 225 225 225 226 228 229 231 236 242 245 243 240 239 245 254 261 269 276 283 289 295 301 306 312 320 321 316 315 320 325 325 321 320 319 317 319 321 322 326 330 330 328
313 314 314 314 312 305 295 286 280 277 274 270 265 261 257 254 251 248 245 244 243 242 241 241 240 239 238 237 236 235 233 231 228 225 223 223 224 224 223 223 225 225 223 222 222 222 223 225 227 229 233 236 236 236 232 233 242 251 255 261 268 276 284 293 301 306 313 321 321 316 316 320 325 325 321 318 316 317 320 323 324 326 328 328 327
310 310 310 310 310 308 301 292 284 279 276 272 266 260 257 254 251 249 245 242 242 241 240 239 239 238 237 236 235 234 232 230 227 224 223 224 224 224 225 227 226 224 221 221 221 221 222 224 225 226 228 230 230 228 225 228 236 244 251 259 266 274 283 291 299 303 312 325 324 317 317 319 322 326 325 321 319 318 319 322 322 322 324 326 325